Weather History for Scottsboro, AL

Change the Weather History Date:

Monday, December 31, 2012

  Actual Average (KHSV) Record (KHSV)
Temperature  
Mean Temperature 37 °F 42 °F  
Max Temperature 46 °F 51 °F 76 °F (1951)
Min Temperature 28 °F 32 °F 9 °F (1976)
Degree Days  
Heating Degree Days 28 23  
Month to date heating degree days 654  
Since 1 July heating degree days 1181  
Cooling Degree Days 0 0  
Month to date cooling degree days 2  
Year to date cooling degree days 1951  
Moisture  
Dew Point 30 °F    
Average Humidity 72    
Maximum Humidity 93    
Minimum Humidity 53    
Precipitation  
Precipitation 0.00 in 0.16 in 1.47 in (1989)
Month to date precipitation 5.77  
Year to date precipitation 54.34  
Snow  
Snow 0.00 in - - ()
Month to date snowfall  
Since 1 July snowfall  
Snow Depth -    
Sea Level Pressure  
Sea Level Pressure 30.27 in    
Wind  
Wind Speed 1 mph (SSW)    
Max Wind Speed 6 mph    
Max Gust Speed -    
Visibility 4 miles    
Events      
T = Trace of Precipitation, MM = Missing Value Source: NWS Daily Summary

Daily Weather History Graph

Daily Weather History Graph

Search for Another Location

Airport:

Trip Planner

Search our weather history database for the weather conditions in past years. The results will help you decide how hot, cold, wet, or windy it might be!

Date:

Astronomy

Dec. 31, 2012 Rise Set
Actual Time 6:51 AM CST 4:43 PM CST
Civil Twilight 6:23 AM CST 5:11 PM CST
Nautical Twilight 5:51 AM CST 5:43 PM CST
Astronomical Twilight 5:21 AM CST 6:13 PM CST
Moon 8:04 PM CST (12/31) 8:40 AM CST (12/31)
Length of Visible Light 10h 48m
Length of Day
9h 52m
Waning Gibbous, 90% of the Moon is Illuminated
Dec 31
Waning Gibbous
Jan 4
Last Quarter
Jan 11
New
Jan 18
First Quarter
Jan 26
Full

Hourly Weather History & Observations

Time (CST) Temp. Windchill Dew Point Humidity Pressure Visibility Wind Dir Wind Speed Gust Speed Precip Events Conditions
12:15 AM 28.4 °F - 26.6 °F 93% 30.39 in 3.0 mi Calm Calm - N/A   Clear
12:35 AM 30.2 °F - 26.6 °F 86% 30.38 in 4.0 mi Calm Calm - N/A   Clear
12:55 AM 28.4 °F - 26.6 °F 93% 30.38 in 4.0 mi Calm Calm - N/A   Clear
1:15 AM 28.4 °F - 26.6 °F 93% 30.39 in 4.0 mi Calm Calm - N/A   Clear
1:35 AM 30.2 °F - 26.6 °F 86% 30.38 in 4.0 mi Calm Calm - N/A   Clear
1:55 AM 30.2 °F - 26.6 °F 86% 30.39 in 4.0 mi Calm Calm - N/A   Clear
2:15 AM 30.2 °F - 26.6 °F 86% 30.40 in 3.0 mi Calm Calm - N/A   Clear
2:35 AM 30.2 °F - 26.6 °F 86% 30.40 in 4.0 mi Calm Calm - N/A   Clear
2:55 AM 30.2 °F - 26.6 °F 86% 30.39 in 4.0 mi Calm Calm - N/A   Clear
3:15 AM 32.0 °F - 28.4 °F 87% 30.38 in 3.0 mi Calm Calm - N/A   Partly Cloudy
3:35 AM 32.0 °F - 28.4 °F 87% 30.37 in 3.0 mi Calm Calm - N/A   Partly Cloudy
3:55 AM 32.0 °F - 26.6 °F 80% 30.38 in 3.0 mi Calm Calm - N/A   Partly Cloudy
4:15 AM 32.0 °F - 26.6 °F 80% 30.37 in 4.0 mi Calm Calm - N/A   Clear
4:35 AM 32.0 °F - 28.4 °F 87% 30.37 in 4.0 mi Calm Calm - N/A   Clear
4:55 AM 32.0 °F - 26.6 °F 80% 30.38 in 3.0 mi Calm Calm - N/A   Clear
5:15 AM 32.0 °F - 28.4 °F 87% 30.37 in 3.0 mi Calm Calm - N/A   Clear
5:35 AM 32.0 °F - 28.4 °F 87% 30.36 in 3.0 mi Calm Calm - N/A   Clear
5:55 AM 30.2 °F - 28.4 °F 93% 30.37 in 4.0 mi Calm Calm - N/A   Clear
6:15 AM 30.2 °F - 28.4 °F 93% 30.36 in 3.0 mi Calm Calm - N/A   Clear
6:35 AM 30.2 °F - 28.4 °F 93% 30.36 in 4.0 mi Calm Calm - N/A   Clear
6:55 AM 30.2 °F - 28.4 °F 93% 30.37 in 2.5 mi Calm Calm - N/A   Clear
7:15 AM 30.2 °F - 28.4 °F 93% 30.36 in 2.5 mi Calm Calm - N/A   Clear
7:35 AM 32.0 °F 28.7 °F 28.4 °F 87% 30.37 in 2.5 mi ENE 3.5 mph - N/A   Clear
7:55 AM 32.0 °F 28.7 °F 28.4 °F 87% 30.36 in 2.5 mi NE 3.5 mph - N/A   Clear
8:35 AM 33.8 °F 30.8 °F 28.4 °F 81% 30.37 in 2.5 mi NE 3.5 mph - N/A   Haze
8:55 AM 35.6 °F - 28.4 °F 75% 30.38 in 2.5 mi Calm Calm - N/A   Haze
9:35 AM 37.4 °F 33.8 °F 28.4 °F 70% 30.35 in 3.0 mi NNE 4.6 mph - N/A   Haze
9:55 AM 37.4 °F 33.8 °F 28.4 °F 70% 30.36 in 3.0 mi North 4.6 mph - N/A   Haze
10:15 AM 37.4 °F 33.8 °F 28.4 °F 70% 30.36 in 3.0 mi NNE 4.6 mph - N/A   Haze
10:35 AM 39.2 °F - 28.4 °F 65% 30.35 in 3.0 mi Calm Calm - N/A   Haze
10:55 AM 39.2 °F - 28.4 °F 65% 30.34 in 2.5 mi Calm Calm - N/A   Haze
11:15 AM 41.0 °F - 28.4 °F 61% 30.33 in 3.0 mi Calm Calm - N/A   Haze
11:35 AM 41.0 °F - 28.4 °F 61% 30.31 in 3.0 mi Calm Calm - N/A   Haze
11:55 AM 42.8 °F 41.1 °F 28.4 °F 57% 30.29 in 3.0 mi SSW 3.5 mph - N/A   Haze
12:15 PM 44.6 °F - 28.4 °F 53% 30.27 in 3.0 mi Calm Calm - N/A   Haze
12:55 PM 44.6 °F - 28.4 °F 53% 30.25 in 3.0 mi Calm Calm - N/A   Haze
1:15 PM 44.6 °F - 30.2 °F 57% 30.24 in 3.0 mi Calm Calm - N/A   Haze
1:35 PM 44.6 °F 43.1 °F 30.2 °F 57% 30.24 in 3.0 mi South 3.5 mph - N/A   Haze
1:55 PM 44.6 °F 43.1 °F 32.0 °F 61% 30.23 in 3.0 mi SE 3.5 mph - N/A   Haze
2:15 PM 44.6 °F - 32.0 °F 61% 30.22 in 2.5 mi Calm Calm - N/A   Haze
2:55 PM 44.6 °F - 32.0 °F 61% 30.21 in 3.0 mi Calm Calm - N/A   Haze
3:15 PM 46.4 °F - 32.0 °F 57% 30.22 in 3.0 mi Calm Calm - N/A   Haze
3:35 PM 46.4 °F - 32.0 °F 57% 30.21 in 3.0 mi Calm Calm - N/A   Haze
3:55 PM 46.4 °F 45.2 °F 32.0 °F 57% 30.21 in 3.0 mi West 3.5 mph - N/A   Haze
4:15 PM 46.4 °F 45.2 °F 32.0 °F 57% 30.22 in 3.0 mi SW 3.5 mph - N/A   Haze
4:35 PM 46.4 °F - 32.0 °F 57% 30.21 in 4.0 mi Calm Calm - N/A   Haze
4:55 PM 44.6 °F - 33.8 °F 66% 30.20 in 4.0 mi Calm Calm - N/A   Haze
5:15 PM 46.4 °F - 32.0 °F 57% 30.19 in 4.0 mi Calm Calm - N/A   Haze
5:35 PM 44.6 °F - 33.8 °F 66% 30.19 in 4.0 mi Calm Calm - N/A   Haze
5:55 PM 46.4 °F - 32.0 °F 57% 30.19 in 5.0 mi Calm Calm - N/A   Haze
6:15 PM 46.4 °F 44.3 °F 32.0 °F 57% 30.19 in 4.0 mi SSW 4.6 mph - N/A   Haze
6:35 PM 46.4 °F 44.3 °F 32.0 °F 57% 30.18 in 4.0 mi SSW 4.6 mph - N/A   Haze
6:55 PM 46.4 °F 44.3 °F 32.0 °F 57% 30.17 in 5.0 mi SW 4.6 mph - N/A   Haze
7:15 PM 46.4 °F 43.5 °F 32.0 °F 57% 30.17 in 5.0 mi SW 5.8 mph - N/A   Haze
7:35 PM 46.4 °F 45.2 °F 32.0 °F 57% 30.17 in 4.0 mi SSW 3.5 mph - N/A   Haze
7:55 PM 46.4 °F - 33.8 °F 62% 30.16 in 4.0 mi Calm Calm - N/A   Haze
8:15 PM 46.4 °F 45.2 °F 32.0 °F 57% 30.16 in 5.0 mi WSW 3.5 mph - N/A   Haze
8:35 PM 46.4 °F 44.3 °F 32.0 °F 57% 30.15 in 4.0 mi SSW 4.6 mph - N/A   Haze
8:55 PM 46.4 °F 44.3 °F 32.0 °F 57% 30.12 in 5.0 mi South 4.6 mph - N/A   Haze
9:15 PM 46.4 °F - 33.8 °F 62% 30.11 in 4.0 mi Calm Calm - N/A   Haze
9:35 PM 44.6 °F - 33.8 °F 66% 30.11 in 4.0 mi Calm Calm - N/A   Haze
9:55 PM 46.4 °F - 33.8 °F 62% 30.10 in 4.0 mi Calm Calm - N/A   Haze
10:15 PM 44.6 °F - 35.6 °F 71% 30.09 in 4.0 mi Calm Calm - N/A   Haze
10:35 PM 44.6 °F - 35.6 °F 71% 30.10 in 4.0 mi Calm Calm - N/A   Haze
10:55 PM 44.6 °F - 37.4 °F 76% 30.08 in 4.0 mi Calm Calm - N/A   Haze
11:15 PM 44.6 °F - 37.4 °F 76% 30.09 in 5.0 mi Calm Calm - N/A   Haze
11:35 PM 44.6 °F - 35.6 °F 71% 30.08 in 4.0 mi Calm Calm - N/A   Haze
11:55 PM 46.4 °F 43.5 °F 37.4 °F 71% 30.08 in 4.0 mi SW 5.8 mph - N/A   Haze